Regional Weather Roundup
Issued by NWS

Home | Current Version | Previous Version | Text Only | Print | Product List | Glossary Off
Versions: 1 2 3 4 5 6 7 8 9 10 11 12 13 14 15 16 17 18 19 20 21 22 23 24 25 26 27 28 29 30 31 32 33 34 35 36 37 38 39 40 41 42 43 44 45 46 47 48 49 50

000
ASUS43 KLOT 191312
RWRIL

ILLINOIS REGIONAL WEATHER ROUNDUP
NATIONAL WEATHER SERVICE CHICAGO/ROMEOVILLE IL
800 AM CDT SUN APR 19 2015

NOTE: "FAIR" INDICATES FEW OR NO CLOUDS BELOW 12,000 FEET WITH NO
SIGNIFICANT WEATHER AND/OR OBSTRUCTIONS TO VISIBILITY.

* THESE STATIONS ARE NOT UNDER NWS QUALITY CONTROL. THEY ALSO MAY NOT
  REPORT WEATHER SUCH AS PRECIPITATION OR FOG.

ILZ001-002-007-009-015-016-024-191400-
NORTHWEST ILLINOIS

CITY           SKY/WX    TMP DP  RH WIND       PRES   REMARKS
MOLINE         PTSUNNY   55  44  66 E9        29.76F
STERLING*      MOSUNNY   57  39  51 E10       29.79F
SAVANNA*       CLOUDY    58  38  45 E6        29.78F
$$

ILZ003-004-008-010-011-017-018-191400-
NORTH CENTRAL ILLINOIS

CITY           SKY/WX    TMP DP  RH WIND       PRES   REMARKS
ROCKFORD       PTSUNNY   56  33  42 E12       29.84F
FREEPORT*      CLOUDY    55  34  44 E12       29.82F
ROCHELLE*      MOSUNNY   56  35  46 E14       29.81F
DE KALB*       MOSUNNY   54  35  49 E14       29.83F
PERU*          MOSUNNY   57  40  52 E12       29.79F
$$

ILZ005-006-012>014-019>023-191400-
NORTHEAST ILLINOIS

CITY           SKY/WX    TMP DP  RH WIND       PRES   REMARKS
CHICAGO-OHARE  PTSUNNY   54  33  45 E8        29.84F
CHICAGO-MIDWAY PTSUNNY   57  35  43 E13       29.84F
AURORA         MOSUNNY   57  36  45 E12       29.82F
LANSING*       MOSUNNY   55  33  43 E13       29.84F
JOLIET*        MOSUNNY   59  39  47 E13       29.82F
WAUKEGAN       MOSUNNY   48  33  56 E8        29.87F
DUPAGE AIRPORT MOSUNNY   55  35  47 E8        29.83F
KANKAKEE*      MOSUNNY   56  40  53 E14G22    29.81F
WHEELING       MOSUNNY   51  33  50 E6        29.87F
MORRIS*        SUNNY     56  37  49 E14       29.79F
ROMEOVILLE*    MOSUNNY   58  35  43 E12       29.82F
NORTHERLY ISL    N/A     50  38  63 NE6         N/A
$$

LMZ740>746-191400-
SOUTHERN LAKE MICHIGAN

STATION/POSITION SKY/WX   TEMP    WIND        PRES    VSBY  WAVE
                          AIR SEA DIR/SP/G                  HT/PER
                          (F)     (DEG/KT/KT) (MB)    (MI)  (FT/S)
HARRISON CRIB              48      90/  6/  7   N/A
BURNHAM HARBOR             50      50/  5/  7   N/A
CALUMET HARBOR             51      70/  4/  6   N/A
BURNS HARBOR               55     120/ 15/ 22 1011.5F
MICHIGAN CITY              54      90/ 14/ 18   N/A
MICHIGAN CITY 6N           52 45  120/ 12/ 17   N/A           3/ 6
$$

ILZ025>027-034>036-040-047-049-050-058-095>099-191400-
WEST-CENTRAL ILLINOIS

CITY           SKY/WX    TMP DP  RH WIND       PRES   REMARKS
QUINCY         PTSUNNY   59  52  77 NE8       29.70F
GALESBURG*     CLOUDY    57  47  69 E8        29.74F
MACOMB*        PTSUNNY   56  48  74 E8        29.75F
JACKSONVILLE*  MOSUNNY   56  50  79 E6        29.70F
PITTSFIELD*    PTSUNNY   63  51  64 E6        29.71F
$$

ILZ028>032-037-038-041>044-048-051>054-059>061-191400-
CENTRAL ILLINOIS

CITY           SKY/WX    TMP DP  RH WIND       PRES   REMARKS
PONTIAC        PTSUNNY   56  42  59 E16       29.78F
BLOOMINGTON    CLOUDY    58  47  66 E16       29.76F
DECATUR        CLOUDY    59  51  75 E10       29.73F
PEORIA         MOSUNNY   60  47  61 E10       29.74F
LACON*         MOSUNNY   54  41  61 E7        29.76F
LINCOLN*       PTSUNNY   60  51  72 E8        29.72F
SPRINGFIELD    PTSUNNY   60  50  69 E7        29.72F
TAYLORVILLE    CLOUDY    59  50  72 E5        29.71F
$$

ILZ033-039-045-046-055>057-062-063-191400-
EAST-CENTRAL ILLINOIS

CITY           SKY/WX    TMP DP  RH WIND       PRES   REMARKS
CHAMPAIGN      CLOUDY    57  48  72 NE12      29.74F
DANVILLE*      CLOUDY    56  44  64 E9G17     29.75F
RANTOUL*       CLOUDY    59  46  63 E13G18    29.76F
MATTOON        LGT RAIN  61  49  64 E9        29.72F
PARIS*         CLOUDY    60  52  75 E6        29.75F
$$

ILZ079-100>102-191400-
SOUTHWEST ILLINOIS

CITY           SKY/WX    TMP DP  RH WIND       PRES   REMARKS
ALTON          CLOUDY    61  50  67 NE7       29.69F
BELLEVILLE     CLOUDY    61  61 100 E5        29.66F
CAHOKIA*       LGT RAIN  62  58  86 CALM      29.67F
SPARTA*        DRIZZLE   60  59  96 E8        29.68F
$$

ILZ064>066-069>071-074>076-080>082-084>086-088>090-092>094-191400-
SOUTH-CENTRAL ILLINOIS

CITY           SKY/WX    TMP DP  RH WIND       PRES   REMARKS
CARBONDALE     RAIN      61  59  93 E6        29.66F FOG
CAIRO*         CLOUDY    65  65 100 E3        29.65F
EFFINGHAM*     LGT RAIN  59  52  78 E6        29.73F
MARION         LGT RAIN  61  61 100 E6        29.68F
MT. VERNON     CLOUDY    57  52  82 NE8       29.69F
CENTRALIA*     LGT RAIN  57  55  92 E6        29.68F
SALEM*         RAIN      59  56  89 E5        29.69F
METROPOLIS*    CLOUDY    64  64 100 CALM      29.65F FOG
$$

ILZ067-068-072-073-078-083-087-091-191400-
SOUTHEAST ILLINOIS

CITY           SKY/WX    TMP DP  RH WIND       PRES   REMARKS
LAWRENCEVILLE  LGT RAIN  57  53  86 E8        29.72F
FLORA*         LGT RAIN  57  55  91 E3        29.71F
FAIRFIELD*     RAIN      57  56  97 NE5       29.68F
HARRISBURG*    HVY RAIN  59  59 100 CALM      29.69F
ROBINSON*      DRIZZLE   60  53  80 CALM      29.73F
CARMI*         RAIN      59  54  84 NE3       29.68F
$$

ABBREVIATIONS USED IN REMARKS
   TC - TEMPERATURE IN CELSIUS
  WCI - WIND CHILL INDEX
   HX - HEAT INDEX
  VSB - VISIBILITY
$$




USA.gov is the U.S. government's official web portal to all federal, state and local government web resources and services.